This is the latest recevied weather packets stored in our database for station/object KB4MOX. If no packets are shown the sender has not sent any weather packets the latest 10 day(s).
| Time | Temp. | Humidity | Pressure | Rain* | Wind** | Luminosity | Snow |
|---|---|---|---|---|---|---|---|
| 1787935530 | 27.22° C | 83% | 1018.2 hPa | 0 mm | - | 382 W/m² | - |
| 1787935226 | 27.78° C | 81% | 1018.6 hPa | 0 mm | - | 404 W/m² | - |
| 1787934921 | 27.22° C | 82% | 1018.5 hPa | 0 mm | - | 394 W/m² | - |
| 1787934616 | 27.22° C | 84% | 1018.4 hPa | 0 mm | - | 542 W/m² | - |
| 1787934316 | 26.67° C | 84% | 1018.4 hPa | 0 mm | - | 370 W/m² | - |
| 1787934015 | 26.67° C | 86% | 1018.3 hPa | 0 mm | - | 379 W/m² | - |
| 1787933714 | 26.67° C | 84% | 1018.5 hPa | 0 mm | - | 367 W/m² | - |
| 1787933410 | 26.67° C | 85% | 1018.4 hPa | 0 mm | - | 310 W/m² | - |
| 1787933109 | 26.11° C | 85% | 1018.3 hPa | 0 mm | - | 317 W/m² | - |
| 1787932808 | 26.67° C | 84% | 1018.4 hPa | 0 mm | - | 329 W/m² | - |
| 1787932503 | 26.11° C | 85% | 1018.7 hPa | 0 mm | - | 408 W/m² | - |
| 1787932197 | 26.67° C | 84% | 1018.6 hPa | 0 mm | - | 393 W/m² | - |
| 1787931896 | 26.11° C | 86% | 1018.4 hPa | 0 mm | - | 464 W/m² | - |
| 1787931591 | 25.56° C | 88% | 1018.5 hPa | 0 mm | - | 477 W/m² | - |
| 1787931286 | 25.56° C | 88% | 1018.5 hPa | 0 mm | - | 327 W/m² | - |
| 1787930985 | 25° C | 90% | 1018.4 hPa | 0 mm | - | 383 W/m² | - |
| 1787930684 | 25° C | 90% | 1018.3 hPa | 0 mm | - | 228 W/m² | - |
| 1787930379 | 25° C | 91% | 1018.3 hPa | 0 mm | - | 190 W/m² | - |
| 1787930074 | 24.44° C | 92% | 1018.3 hPa | 0 mm | - | 205 W/m² | - |
| 1787929773 | 24.44° C | 93% | 1018.3 hPa | 0 mm | - | 209 W/m² | - |
| 1787929468 | 24.44° C | 95% | 1018.3 hPa | 0 mm | - | 220 W/m² | - |
| 1787929165 | 23.89° C | 95% | 1018.4 hPa | 0 mm | - | 218 W/m² | - |
| 1787928861 | 23.89° C | 96% | 1018.1 hPa | 0 mm | - | 163 W/m² | - |
| 1787928561 | 23.89° C | 96% | 1018.4 hPa | 0 mm | - | 159 W/m² | - |
| 1787928259 | 23.33° C | 96% | 1018.2 hPa | 0 mm | - | 142 W/m² | - |
* Rain latest hour (hover to see other rain measurements)
** Current wind speed in m/s (hover to see current wind gust speed)